Weather History for Buffalo, NY

Change the Weather History Date:

Friday, September 13, 2013

  Actual Average Record
Temperature  
Mean Temperature 56 °F 63 °F  
Max Temperature 61 °F 72 °F 91 °F (1952)
Min Temperature 50 °F 55 °F 38 °F (1964)
Degree Days  
Heating Degree Days 9 4  
Month to date heating degree days 39 31  
Since 1 July heating degree days 55 58  
Cooling Degree Days 0 2  
Month to date cooling degree days 44 35  
Year to date cooling degree days 596 522  
Growing Degree Days 2 (Base 50)    
Moisture  
Dew Point 48 °F    
Average Humidity 84    
Maximum Humidity 89    
Minimum Humidity 78    
Precipitation  
Precipitation 0.01 in 0.12 in 1.85 in (1925)
Month to date precipitation 0.59 1.51  
Year to date precipitation 28.22 26.67  
Snow  
Snow 0.00 in 0.00 in 0.00 in ()
Month to date snowfall 0.0 0.0  
Since 1 July snowfall 0.0 0.0  
Since 1 September snowfall 0.0 0.0  
Snow Depth 0.00 in    
Sea Level Pressure  
Sea Level Pressure 29.93 in    
Wind  
Wind Speed 9 mph (NNW)    
Max Wind Speed 17 mph    
Max Gust Speed 22 mph    
Visibility 9 miles    
Events Rain    
T = Trace of Precipitation, MM = Missing Value Source: NWS Daily Summary

Daily Weather History Graph

Daily Weather History Graph

Search for Another Location

Airport:

Trip Planner

Search our weather history database for the weather conditions in past years. The results will help you decide how hot, cold, wet, or windy it might be!

Date:

Astronomy

Sep. 13, 2013 Rise Set
Actual Time 6:52 AM EDT 7:28 PM EDT
Civil Twilight 6:24 AM EDT 7:56 PM EDT
Nautical Twilight 5:50 AM EDT 8:30 PM EDT
Astronomical Twilight 5:15 AM EDT 9:04 PM EDT
Moon 3:22 PM EDT (9/13) 12:13 AM EDT (9/13)
Length of Visible Light 13h 32m
Length of Day
12h 35m
First Quarter, 61% of the Moon is Illuminated
Sep 13
First Quarter
Sep 19
Full
Sep 26
Last Quarter
Oct 4
New
Oct 11
First Quarter

Hourly Weather History & Observations

Time (EDT) Temp. Dew Point Humidity Pressure Visibility Wind Dir Wind Speed Gust Speed Precip Events Conditions
12:54 AM 61.0 °F 54.0 °F 78% 29.79 in 10.0 mi NW 6.9 mph - N/A   Mostly Cloudy
1:54 AM 61.0 °F 55.0 °F 81% 29.81 in 10.0 mi NW 5.8 mph - N/A   Mostly Cloudy
2:54 AM 60.1 °F 55.0 °F 83% 29.81 in 10.0 mi NNW 9.2 mph - N/A   Overcast
3:54 AM 57.9 °F 53.1 °F 84% 29.81 in 10.0 mi NNW 10.4 mph - N/A   Overcast
4:54 AM 55.9 °F 52.0 °F 87% 29.82 in 10.0 mi NNW 6.9 mph - N/A   Scattered Clouds
5:54 AM 55.0 °F 52.0 °F 89% 29.83 in 10.0 mi NNW 6.9 mph - N/A   Mostly Cloudy
6:54 AM 55.0 °F 50.0 °F 83% 29.85 in 10.0 mi NNW 8.1 mph - N/A   Overcast
7:54 AM 55.0 °F 50.0 °F 83% 29.87 in 10.0 mi NNW 11.5 mph - N/A   Mostly Cloudy
8:36 AM 53.6 °F 48.2 °F 82% 29.88 in 10.0 mi NNW 15.0 mph 20.7 mph N/A   Overcast
8:54 AM 54.0 °F 48.9 °F 83% 29.89 in 10.0 mi North 13.8 mph - 0.00 in Rain Light Rain
9:29 AM 53.6 °F 48.2 °F 82% 29.90 in 10.0 mi NNW 13.8 mph - 0.00 in   Mostly Cloudy
9:54 AM 54.0 °F 48.0 °F 80% 29.90 in 10.0 mi North 11.5 mph - 0.00 in Rain Light Rain
10:09 AM 53.6 °F 46.4 °F 77% 29.91 in 10.0 mi North 15.0 mph - 0.00 in Rain Light Rain
10:50 AM 51.8 °F 48.2 °F 88% 29.92 in 2.5 mi NNW 9.2 mph - 0.00 in Rain Light Rain
10:54 AM 52.0 °F 48.9 °F 89% 29.92 in 2.5 mi NNW 10.4 mph - 0.00 in Rain Light Rain
11:05 AM 51.8 °F 48.2 °F 88% 29.92 in 5.0 mi NNW 9.2 mph - 0.01 in Rain Light Rain
11:37 AM 53.6 °F 48.2 °F 82% 29.93 in 10.0 mi NNW 12.7 mph - 0.01 in   Overcast
11:54 AM 54.0 °F 46.9 °F 77% 29.94 in 10.0 mi NNW 11.5 mph - 0.01 in   Overcast
12:54 PM 54.0 °F 46.0 °F 75% 29.94 in 10.0 mi NNW 12.7 mph - 0.00 in Rain Light Rain
1:54 PM 52.0 °F 46.9 °F 83% 29.95 in 8.0 mi North 11.5 mph 20.7 mph 0.00 in Rain Light Rain
2:54 PM 52.0 °F 48.0 °F 86% 29.95 in 10.0 mi NNW 10.4 mph - 0.00 in Rain Light Rain
3:54 PM 52.0 °F 46.9 °F 83% 29.96 in 10.0 mi NW 10.4 mph - 0.00 in Rain Light Rain
4:54 PM 52.0 °F 48.0 °F 86% 29.97 in 10.0 mi NNW 11.5 mph - 0.00 in Rain Light Rain
5:38 PM 51.8 °F 46.4 °F 82% 29.98 in 8.0 mi NW 6.9 mph - 0.00 in Rain Light Rain
5:54 PM 51.1 °F 46.9 °F 86% 29.99 in 10.0 mi WNW 8.1 mph - 0.00 in Rain Light Rain
6:54 PM 51.1 °F 46.9 °F 86% 30.00 in 10.0 mi WNW 5.8 mph - 0.00 in Rain Light Rain
7:39 PM 51.8 °F 46.4 °F 82% 30.00 in 10.0 mi NNW 8.1 mph - 0.00 in Rain Light Rain
7:54 PM 51.1 °F 46.0 °F 83% 30.01 in 10.0 mi NNW 8.1 mph - 0.00 in   Overcast
8:25 PM 51.8 °F 46.4 °F 82% 30.02 in 10.0 mi NW 6.9 mph - N/A   Overcast
8:54 PM 50.0 °F 46.0 °F 86% 30.04 in 10.0 mi NW 8.1 mph - 0.00 in   Light Drizzle
9:28 PM 50.0 °F 44.6 °F 82% 30.04 in 10.0 mi NW 8.1 mph - 0.00 in   Light Drizzle
9:54 PM 50.0 °F 45.0 °F 83% 30.05 in 10.0 mi NNW 8.1 mph - 0.00 in   Light Drizzle
10:54 PM 50.0 °F 44.1 °F 80% 30.06 in 10.0 mi NNW 9.2 mph - 0.00 in   Overcast
11:54 PM 50.0 °F 44.1 °F 80% 30.05 in 10.0 mi North 5.8 mph - N/A   Overcast